Retour au catalogue

STARLINK-32149

ActifCommunicationsVLEO
NORAD 60292·PAYLOAD·🇺🇸 United States

Lancé Jul 28, 2024 depuis Cape Canaveral Space Force Station

Loading…

Prochains Passages (prochaines 24 heures)

TLE

FraisSource: CelesTrak SupGP

Époque: Sep 15, 2026, 02:43 UTC

1 60292C 24132Q   26258.11368056 -.00035760  00000+0 -11498-2 0  2589
2 60292  53.1577 251.5160 0001373  92.2728  30.3892 15.31725079    19

Suivez STARLINK-32149 en temps réel avec AllMySat

Download on the App Store